When you browse on this site, cookies collect data to enhance your experience and personalize the content and advertising you see.
Visit our Privacy Policy to learn more. By continuing to use the site, you agree to this use of cookies and data.
  • In Hungary
  • List of Countries
  • For 7 days
  • Water Temperature
  • Satellite Maps
  • Weather Map
  • News
  • Weather Widgets
  • user-avatar
    Login

    Hourly Weather Floirac

    Today, 19 March, Tuesday

    Time Temperature Precipitation Wind Pressure Humidity
    00:00 +9°C° 0.4 mm 1 mps 769 mmHg 91%
    01:00 +8°C° 0 mm 1 mps 769 mmHg 92%
    02:00 +7°C° 0 mm 1 mps 769 mmHg 93%
    03:00 +7°C° 0 mm 1 mps 769 mmHg 95%
    04:00 +6°C° 0 mm 1 mps 769 mmHg 95%
    05:00 +6°C° 0 mm 1 mps 769 mmHg 96%
    06:00 +6°C° 0 mm 1 mps 770 mmHg 96%
    07:00 +7°C° 0 mm 1 mps 770 mmHg 90%
    08:00 +7°C° 0 mm 2 mps 770 mmHg 84%
    09:00 +9°C° 0 mm 2 mps 771 mmHg 78%
    10:00 +10°C° 0 mm 2 mps 771 mmHg 70%
    11:00 +12°C° 0 mm 2 mps 771 mmHg 62%
    12:00 +13°C° 0 mm 3 mps 771 mmHg 54%
    13:00 +13°C° 0 mm 3 mps 771 mmHg 52%
    14:00 +13°C° 0 mm 3 mps 771 mmHg 50%
    15:00 +14°C° 0 mm 3 mps 771 mmHg 49%
    16:00 +13°C° 0 mm 3 mps 771 mmHg 53%
    17:00 +12°C° 0 mm 3 mps 771 mmHg 57%
    18:00 +12°C° 0 mm 2 mps 772 mmHg 62%
    19:00 +10°C° 0 mm 2 mps 772 mmHg 67%
    20:00 +8°C° 0 mm 2 mps 773 mmHg 72%
    21:00 +7°C° 0 mm 2 mps 773 mmHg 77%
    22:00 +7°C° 0 mm 2 mps 773 mmHg 79%
    23:00 +6°C° 0 mm 2 mps 774 mmHg 81%

    Tomorrow, 20 March, Wednesday

    Time Temperature Precipitation Wind Pressure Humidity
    00:00 +6°C° 0 mm 2 mps 774 mmHg 82%
    01:00 +5°C° 0 mm 2 mps 774 mmHg 82%
    02:00 +6°C° 0 mm 1 mps 774 mmHg 82%
    03:00 +6°C° 0 mm 1 mps 774 mmHg 82%
    04:00 +5°C° 0 mm 1 mps 774 mmHg 83%
    05:00 +5°C° 0 mm 1 mps 774 mmHg 83%
    06:00 +5°C° 0 mm 1 mps 774 mmHg 83%
    07:00 +6°C° 0 mm 2 mps 774 mmHg 74%
    08:00 +7°C° 0 mm 2 mps 774 mmHg 64%
    09:00 +9°C° 0 mm 2 mps 775 mmHg 55%
    10:00 +11°C° 0 mm 3 mps 774 mmHg 48%
    11:00 +12°C° 0 mm 3 mps 774 mmHg 41%
    12:00 +14°C° 0 mm 3 mps 774 mmHg 34%
    13:00 +14°C° 0 mm 3 mps 774 mmHg 34%
    14:00 +15°C° 0 mm 4 mps 773 mmHg 35%
    15:00 +15°C° 0 mm 4 mps 773 mmHg 36%
    16:00 +14°C° 0 mm 3 mps 773 mmHg 42%
    17:00 +12°C° 0 mm 3 mps 773 mmHg 48%
    18:00 +11°C° 0 mm 3 mps 773 mmHg 54%
    19:00 +10°C° 0 mm 3 mps 773 mmHg 57%
    20:00 +9°C° 0 mm 3 mps 773 mmHg 60%
    21:00 +8°C° 0 mm 3 mps 774 mmHg 63%
    22:00 +8°C° 0 mm 3 mps 773 mmHg 67%
    23:00 +7°C° 0 mm 2 mps 773 mmHg 70%

    Day after tomorrow, 21 March, Thursday

    Time Temperature Precipitation Wind Pressure Humidity
    00:00 +6°C° 0 mm 2 mps 773 mmHg 73%
    01:00 +6°C° 0 mm 2 mps 773 mmHg 76%
    02:00 +5°C° 0 mm 2 mps 773 mmHg 78%
    03:00 +6°C° 0 mm 1 mps 773 mmHg 81%
    04:00 +5°C° 0 mm 1 mps 773 mmHg 82%
    05:00 +5°C° 0 mm 1 mps 773 mmHg 84%
    06:00 +4°C° 0 mm 1 mps 773 mmHg 85%
    07:00 +6°C° 0 mm 1 mps 773 mmHg 77%
    08:00 +7°C° 0 mm 2 mps 773 mmHg 69%
    09:00 +9°C° 0 mm 2 mps 773 mmHg 60%
    10:00 +12°C° 0 mm 2 mps 773 mmHg 54%
    11:00 +14°C° 0 mm 2 mps 773 mmHg 47%
    12:00 +16°C° 0 mm 2 mps 772 mmHg 40%
    13:00 +16°C° 0 mm 2 mps 772 mmHg 39%
    14:00 +17°C° 0 mm 2 mps 772 mmHg 37%
    15:00 +17°C° 0 mm 2 mps 771 mmHg 36%
    16:00 +16°C° 0 mm 2 mps 771 mmHg 42%
    17:00 +14°C° 0 mm 1 mps 771 mmHg 47%
    18:00 +13°C° 0 mm 1 mps 771 mmHg 53%
    19:00 +12°C° 0 mm 1 mps 772 mmHg 57%
    20:00 +11°C° 0 mm 1 mps 772 mmHg 62%
    21:00 +9°C° 0 mm 1 mps 772 mmHg 66%
    22:00 +8°C° 0 mm 0 mps 772 mmHg 68%
    23:00 +7°C° 0 mm 0 mps 772 mmHg 70%

    22 March, Friday

    Time Temperature Precipitation Wind Pressure Humidity
    00:00 +7°C° 0 mm 0 mps 772 mmHg 72%
    01:00 +7°C° 0 mm 0 mps 772 mmHg 72%
    02:00 +8°C° 0 mm 1 mps 772 mmHg 72%
    03:00 +7°C° 0 mm 1 mps 771 mmHg 71%
    04:00 +7°C° 0 mm 1 mps 771 mmHg 72%
    05:00 +7°C° 0 mm 1 mps 772 mmHg 72%
    06:00 +6°C° 0 mm 1 mps 772 mmHg 73%
    07:00 +8°C° 0 mm 1 mps 772 mmHg 66%
    08:00 +11°C° 0 mm 1 mps 772 mmHg 60%
    09:00 +13°C° 0 mm 1 mps 772 mmHg 53%
    10:00 +15°C° 0 mm 1 mps 771 mmHg 48%
    11:00 +18°C° 0 mm 1 mps 771 mmHg 42%
    12:00 +20°C° 0 mm 1 mps 771 mmHg 37%
    13:00 +21°C° 0 mm 1 mps 771 mmHg 36%
    14:00 +21°C° 0 mm 1 mps 770 mmHg 35%
    15:00 +22°C° 0 mm 1 mps 770 mmHg 34%
    16:00 +20°C° 0 mm 1 mps 770 mmHg 40%
    17:00 +19°C° 0 mm 1 mps 770 mmHg 45%
    18:00 +16°C° 0 mm 1 mps 770 mmHg 51%
    19:00 +15°C° 0 mm 1 mps 770 mmHg 55%
    20:00 +14°C° 0 mm 1 mps 770 mmHg 58%
    21:00 +12°C° 0 mm 1 mps 771 mmHg 62%
    22:00 +12°C° 0 mm 1 mps 770 mmHg 63%
    23:00 +11°C° 0 mm 1 mps 770 mmHg 65%

    23 March, Saturday

    Time Temperature Precipitation Wind Pressure Humidity
    00:00 +11°C° 0 mm 1 mps 770 mmHg 66%
    01:00 +10°C° 0 mm 1 mps 770 mmHg 68%
    02:00 +10°C° 0 mm 1 mps 770 mmHg 69%
    03:00 +10°C° 0 mm 1 mps 770 mmHg 71%
    04:00 +9°C° 0 mm 1 mps 770 mmHg 71%
    05:00 +9°C° 0 mm 1 mps 770 mmHg 71%
    06:00 +9°C° 0 mm 1 mps 769 mmHg 72%
    07:00 +11°C° 0 mm 1 mps 769 mmHg 66%
    08:00 +13°C° 0 mm 2 mps 769 mmHg 60%
    09:00 +15°C° 0 mm 2 mps 769 mmHg 54%
    10:00 +17°C° 0 mm 2 mps 769 mmHg 49%
    11:00 +19°C° 0 mm 2 mps 769 mmHg 44%
    12:00 +21°C° 0 mm 2 mps 769 mmHg 39%
    13:00 +23°C° 0 mm 2 mps 768 mmHg 37%
    14:00 +23°C° 0 mm 2 mps 768 mmHg 35%
    15:00 +24°C° 0 mm 2 mps 767 mmHg 32%
    16:00 +21°C° 0 mm 2 mps 767 mmHg 39%
    17:00 +20°C° 0 mm 2 mps 767 mmHg 46%
    18:00 +18°C° 0 mm 2 mps 767 mmHg 52%
    19:00 +17°C° 0 mm 2 mps 767 mmHg 56%
    20:00 +15°C° 0 mm 2 mps 768 mmHg 60%
    21:00 +14°C° 0 mm 2 mps 768 mmHg 63%
    22:00 +13°C° 0 mm 2 mps 768 mmHg 65%
    23:00 +13°C° 0 mm 2 mps 768 mmHg 67%

    24 March, Sunday

    Time Temperature Precipitation Wind Pressure Humidity
    00:00 +12°C° 0 mm 2 mps 768 mmHg 70%
    01:00 +12°C° 0 mm 2 mps 768 mmHg 72%
    02:00 +10°C° 0 mm 2 mps 768 mmHg 74%
    03:00 +11°C° 0 mm 1 mps 767 mmHg 75%
    04:00 +11°C° 0 mm 1 mps 768 mmHg 77%
    05:00 +10°C° 0 mm 1 mps 768 mmHg 78%
    06:00 +10°C° 0 mm 1 mps 768 mmHg 79%
    07:00 +12°C° 0 mm 1 mps 768 mmHg 71%
    08:00 +14°C° 0 mm 1 mps 768 mmHg 63%
    09:00 +16°C° 0 mm 1 mps 768 mmHg 55%
    10:00 +18°C° 0 mm 2 mps 768 mmHg 51%
    11:00 +19°C° 0 mm 2 mps 768 mmHg 46%
    12:00 +21°C° 0 mm 2 mps 768 mmHg 42%
    13:00 +23°C° 0 mm 2 mps 768 mmHg 41%
    14:00 +22°C° 0 mm 3 mps 767 mmHg 40%
    15:00 +22°C° 0 mm 3 mps 767 mmHg 40%
    16:00 +21°C° 0 mm 3 mps 767 mmHg 46%
    17:00 +20°C° 0 mm 3 mps 767 mmHg 52%
    18:00 +18°C° 0 mm 2 mps 767 mmHg 59%
    19:00 +17°C° 0 mm 3 mps 767 mmHg 63%
    20:00 +16°C° 0 mm 3 mps 768 mmHg 68%
    21:00 +14°C° 0 mm 3 mps 768 mmHg 72%
    22:00 +13°C° 0 mm 3 mps 768 mmHg 74%
    23:00 +13°C° 0 mm 2 mps 768 mmHg 77%
    Show more